Bucharest, Romania

8:31 PM EEST on July 29, 2016 (GMT +0300)
Bucharest

Weather History for 15420 - February, 2010

Change the Weather History Date:

Friday, February 19, 2010

  Actual Average Record
Temperature  
Mean Temperature 39 °F -  
Max Temperature 47 °F 47 °F - ()
Min Temperature 31 °F 30 °F - ()
Degree Days  
Heating Degree Days 26    
Moisture  
Dew Point 34 °F    
Average Humidity 96    
Maximum Humidity 100    
Minimum Humidity 50    
Precipitation  
Precipitation 0.00 in 0.05 in - ()
Sea Level Pressure  
Sea Level Pressure 29.78 in    
Wind  
Wind Speed 6 mph ()    
Max Wind Speed 12 mph    
Max Gust Speed -    
Visibility 1.3 miles    
Events Fog , Rain    
T = Trace of Precipitation, MM = Missing Value Source: Averaged Metar Reports

Daily Weather History Graph

Daily Weather History Graph

Search for Another Location

Airport or City:

Trip Planner

Search our weather history database for the weather conditions in past years. The results will help you decide how hot, cold, wet, or windy it might be!

Date:

Astronomy

Feb. 19, 2010 Rise Set
Actual Time 7:10 AM EET 5:49 PM EET
Civil Twilight 6:40 AM EET 6:19 PM EET
Nautical Twilight 6:06 AM EET 6:53 PM EET
Astronomical Twilight 5:32 AM EET 7:27 PM EET
Moon 8:52 AM EET (2/19) 11:37 PM EET (2/19)
Length of Visible Light 11h 38m
Length of Day
10h 39m
Waxing Crescent, 24% of the Moon is Illuminated
Feb 19
Waxing Crescent
Feb 22
First Quarter
Feb 28
Full
Mar 7
Last Quarter
Mar 15
New

Hourly Weather History & Observations

Time (EET) Temp. Windchill Dew Point Humidity Pressure Visibility Wind Dir Wind Speed Gust Speed Precip Events Conditions
12:00 AM 33 °F - 33 °F 100% 29.74 in 0 mi WSW 8.9 mph - - Fog Partial Fog
12:00 AM 33.8 °F 26.4 °F 33.8 °F 100% 29.74 in 0.1 mi West 9.2 mph - N/A Fog Fog
12:30 AM 33.8 °F 26.4 °F 33.8 °F 100% 29.74 in 0.1 mi West 9.2 mph - N/A Fog Fog
1:00 AM 33 °F - 33 °F 98% 29.75 in 0 mi WSW 6.7 mph - - Fog Partial Fog
1:00 AM 33.8 °F 25.8 °F 33.8 °F 100% 29.74 in 0.1 mi West 10.4 mph - N/A Fog Fog
1:30 AM 33.8 °F 25.3 °F 32.0 °F 93% 29.74 in 0.1 mi West 11.5 mph - N/A Fog Fog
2:00 AM 32 °F - 32 °F 100% 29.76 in 0 mi WSW 8.9 mph - - Fog Partial Fog
2:00 AM 32.0 °F 23.6 °F 32.0 °F 100% 29.74 in 0.1 mi West 10.4 mph - N/A Fog Fog
2:30 AM 32.0 °F 24.2 °F 32.0 °F 100% 29.74 in 0.1 mi West 9.2 mph - N/A Fog Fog
3:00 AM 32 °F - 32 °F 99% 29.77 in 0 mi WSW 6.7 mph - - Fog Partial Fog
3:00 AM 33.8 °F 27.0 °F 32.0 °F 93% 29.74 in 0.2 mi West 8.1 mph - N/A Fog Fog
3:30 AM 33.8 °F 27.0 °F 32.0 °F 93% 29.74 in 0.1 mi West 8.1 mph - N/A Fog Fog
4:00 AM 33 °F - 33 °F 98% 29.77 in 0 mi WSW 6.7 mph - - Fog Partial Fog
4:00 AM 33.8 °F 27.7 °F 33.8 °F 100% 29.77 in 0.1 mi West 6.9 mph - N/A Fog Fog
4:30 AM 33.8 °F 27.0 °F 33.8 °F 100% 29.77 in 0.1 mi West 8.1 mph - N/A Fog Fog
5:00 AM 33 °F - 33 °F 100% 29.78 in 0 mi WSW 6.7 mph - - Fog Partial Fog
5:00 AM 33.8 °F 27.0 °F 33.8 °F 100% 29.77 in 0.1 mi West 8.1 mph - N/A Fog Fog
5:30 AM 33.8 °F 27.7 °F 33.8 °F 100% 29.77 in 0.1 mi West 6.9 mph - N/A Fog Fog
6:00 AM 33 °F - 33 °F 99% 29.80 in 0 mi WSW 8.9 mph - - Fog Partial Fog
6:00 AM 33.8 °F 28.6 °F 33.8 °F 100% 29.80 in 0.1 mi West 5.8 mph - N/A Fog Fog
6:30 AM 33.8 °F 26.4 °F 33.8 °F 100% 29.80 in 0.2 mi West 9.2 mph - N/A Fog Fog
7:00 AM 33 °F - 33 °F 97% 29.83 in 0 mi WSW 6.7 mph - - Fog Partial Fog
7:00 AM 33.8 °F 27.0 °F 32.0 °F 93% 29.80 in 0.2 mi West 8.1 mph - N/A Fog Fog
7:30 AM 33.8 °F 28.6 °F 33.8 °F 100% 29.83 in 0.1 mi West 5.8 mph - N/A Fog Fog
8:00 AM 33 °F - 33 °F 97% 29.84 in 0 mi WSW 4.5 mph - - Fog Partial Fog
8:00 AM 33.8 °F 27.7 °F 33.8 °F 100% 29.86 in 0.1 mi West 6.9 mph - N/A Fog Fog
8:30 AM 33.8 °F 27.0 °F 33.8 °F 100% 29.86 in 0.2 mi West 8.1 mph - N/A Fog Fog
9:00 AM 33 °F - 33 °F 98% 29.88 in - WSW 6.7 mph - -  
9:00 AM 33.8 °F 27.7 °F 33.8 °F 100% 29.86 in 0.2 mi West 6.9 mph - N/A Fog Fog
9:30 AM 33.8 °F 27.7 °F 33.8 °F 100% 29.86 in 0.2 mi West 6.9 mph - N/A Fog Fog
10:00 AM 33 °F - 33 °F 100% 29.88 in - WSW 4.5 mph - -  
10:00 AM 33.8 °F 29.6 °F 33.8 °F 100% 29.86 in 0.2 mi West 4.6 mph - N/A Fog Fog
10:30 AM 33.8 °F 27.7 °F 33.8 °F 100% 29.86 in 0.2 mi West 6.9 mph - N/A Fog Fog
11:00 AM 33 °F - 33 °F 100% 29.90 in - WSW 4.5 mph - -  
11:00 AM 33.8 °F 28.6 °F 33.8 °F 100% 29.86 in 0.2 mi West 5.8 mph - N/A Fog Fog
11:30 AM 35.6 °F 32.8 °F 33.8 °F 93% 29.86 in 0.3 mi WSW 3.5 mph - N/A Fog Fog
12:00 PM 35 °F - 35 °F 97% 29.89 in - WSW 4.5 mph - -  
12:00 PM 35.6 °F 31.7 °F 35.6 °F 100% 29.86 in 0.4 mi West 4.6 mph - N/A Fog Fog
12:30 PM 35.6 °F 31.7 °F 33.8 °F 93% 29.83 in 0.4 mi WSW 4.6 mph - N/A Fog Fog
1:00 PM 36 °F - 36 °F 99% 29.87 in 0 mi WSW 4.5 mph - - Fog Partial Fog
1:00 PM 35.6 °F 32.8 °F 35.6 °F 100% 29.83 in 1.2 mi WSW 3.5 mph - N/A   Mostly Cloudy
1:30 PM 37.4 °F 34.9 °F 37.4 °F 100% 29.83 in 3.1 mi West 3.5 mph - N/A   Mostly Cloudy
2:00 PM 39 °F - 39 °F 98% 29.86 in 1 mi SW 4.5 mph - - Fog Light Fog
2:00 PM 37.4 °F 33.8 °F 37.4 °F 100% 29.83 in 3.1 mi West 4.6 mph - N/A   Mostly Cloudy
2:30 PM 39.2 °F 33.6 °F 39.2 °F 100% 29.83 in 5.0 mi West 8.1 mph - N/A   Unknown
3:00 PM 39 °F - 34 °F 76% 29.87 in 2 mi WSW 6.7 mph - -   Mist
3:30 PM 41.0 °F - 41.0 °F 100% 29.80 in - Variable 2.3 mph - N/A   Clear
4:00 PM 46 °F - 33 °F 50% 29.83 in 6 mi SSW 2.2 mph - -   Scattered Clouds
4:00 PM 42.8 °F - 42.8 °F 100% 29.77 in - Variable 2.3 mph - N/A   Clear
4:30 PM 42.8 °F - 41.0 °F 93% 29.77 in - ENE 2.3 mph - N/A   Clear
5:00 PM 44 °F - 32 °F 52% 29.78 in 6 mi Calm Calm - -   Clear
5:00 PM 42.8 °F - 41.0 °F 93% 29.77 in - Variable 1.2 mph - N/A   Clear
5:30 PM 39.2 °F 34.2 °F 37.4 °F 93% 29.74 in 3.1 mi East 6.9 mph - N/A   Mist
6:00 PM 40 °F - 34 °F 72% 29.76 in 6 mi ENE 4.5 mph - -   Clear
6:00 PM 37.4 °F 32.8 °F 37.4 °F 100% 29.74 in 1.9 mi East 5.8 mph - N/A   Mist
6:30 PM 35.6 °F 31.7 °F 35.6 °F 100% 29.74 in 1.9 mi East 4.6 mph - N/A   Mist
7:00 PM 36 °F - 34 °F 89% 29.75 in 6 mi ENE 4.5 mph - -  
7:00 PM 33.8 °F 28.6 °F 33.8 °F 100% 29.74 in 0.7 mi East 5.8 mph - N/A   Scattered Clouds
7:30 PM 33.8 °F 28.6 °F 32.0 °F 93% 29.71 in 0.3 mi ENE 5.8 mph - N/A Fog Fog
8:00 PM 32 °F - 31 °F 96% 29.73 in 2 mi NNE 4.5 mph - -   Mist
8:00 PM 32.0 °F 27.5 °F 32.0 °F 100% 29.71 in 0.3 mi ENE 4.6 mph - N/A Fog Fog
8:30 PM 33.8 °F 28.6 °F 32.0 °F 93% 29.71 in 0.7 mi ENE 5.8 mph - N/A   Scattered Clouds
9:00 PM 32 °F - 32 °F 99% 29.72 in 6 mi NNE 4.5 mph - -   Overcast
9:00 PM 33.8 °F 28.6 °F 32.0 °F 93% 29.68 in 0.7 mi ENE 5.8 mph - N/A   Mostly Cloudy
9:30 PM 33.8 °F 28.6 °F 33.8 °F 100% 29.65 in 0.7 mi NE 5.8 mph - N/A   Scattered Clouds
10:00 PM 33 °F - 33 °F 98% 29.68 in 6 mi North 4.5 mph - -   Overcast
10:00 PM 33.8 °F 27.7 °F 33.8 °F 100% 29.65 in 0.9 mi ENE 6.9 mph - N/A   Mostly Cloudy
10:30 PM 33.8 °F 28.6 °F 33.8 °F 100% 29.62 in 1.2 mi ENE 5.8 mph - N/A Rain Light Rain
11:00 PM 33 °F - 33 °F 100% 29.65 in 6 mi NNE 4.5 mph - -   Overcast
11:00 PM 35.6 °F 29.9 °F 33.8 °F 93% 29.59 in 1.6 mi ENE 6.9 mph - N/A   Scattered Clouds
11:30 PM 35.6 °F 32.8 °F 33.8 °F 93% 29.59 in 1.6 mi NE 3.5 mph - N/A Rain Light Rain